Location: Ferintosh
(52.7647°N, 112.9692°W)
Time: 22:26:43
(UTC+00:00)

Vanguard 1 Rocket - Pass Details

Date: 22 May 2024
Orbit: 649 x 4221 km, 34.3° (Epoch: 13 June)

Event Time Altitude Azimuth Distance (km) Brightness Sun altitude
Rises 18:38:53 0° 246° (WSW) 7,535 12.1 56.4°
Reaches altitude 10° 18:45:25 10° 239° (WSW) 5,943 11.8 56.8°
Maximum altitude 18:58:26 30° 187° (S) 3,143 11.4 57.3°
Drops below altitude 10° 19:06:12 10° 130° (SE) 3,489 10.9 57.5°
Sets 19:08:55 0° 118° (ESE) 4,113 11.0 57.6°
